Time,TemperatureF,DewpointF,PressureIn,WindDirection,WindDirectionDegrees,WindSpeedMPH,WindSpeedGustMPH,Humidity,HourlyPrecipIn,Conditions,Clouds,dailyrainin,SoftwareType,DateUTC
2013-04-21 00:02:00,71.0,-99.9,-100.00,SSW,203,0.0,-999.0,-999,-99.99,,,0.00,,2013-04-21 06:02:00,
2013-04-21 00:12:00,72.0,-99.9,-100.00,SSW,203,0.0,-999.0,-999,-99.99,,,0.00,,2013-04-21 06:12:00,
2013-04-21 00:22:00,72.0,-99.9,-100.00,SSW,203,0.0,-999.0,-999,-99.99,,,0.00,,2013-04-21 06:22:00,
2013-04-21 00:32:00,72.0,-99.9,-100.00,SSW,203,5.0,-999.0,-999,-99.99,,,0.00,,2013-04-21 06:32:00,
2013-04-21 00:42:00,72.0,-99.9,-100.00,SSW,203,5.0,-999.0,-999,-99.99,,,0.00,,2013-04-21 06:42:00,
2013-04-21 00:52:00,72.0,-99.9,-100.00,SSW,203,8.0,-999.0,-999,-99.99,,,0.00,,2013-04-21 06:52:00,
2013-04-21 01:02:00,70.0,-99.9,-100.00,SSW,203,6.0,-999.0,-999,-99.99,,,0.00,,2013-04-21 07:02:00,
2013-04-21 01:12:00,69.0,-99.9,-100.00,SSW,203,0.0,-999.0,-999,-99.99,,,0.00,,2013-04-21 07:12:00,
2013-04-21 01:22:00,69.0,-99.9,-100.00,SSW,203,0.0,-999.0,-999,-99.99,,,0.00,,2013-04-21 07:22:00,
2013-04-21 01:32:00,69.0,-99.9,-100.00,SSW,203,0.0,-999.0,-999,-99.99,,,0.00,,2013-04-21 07:32:00,
2013-04-21 01:42:00,69.0,-99.9,-100.00,SSW,203,0.0,-999.0,-999,-99.99,,,0.00,,2013-04-21 07:42:00,
2013-04-21 01:52:00,67.0,-99.9,-100.00,SSW,203,0.0,-999.0,-999,-99.99,,,0.00,,2013-04-21 07:52:00,
2013-04-21 02:02:00,65.0,-99.9,-100.00,SSW,203,0.0,-999.0,-999,-99.99,,,0.00,,2013-04-21 08:02:00,
2013-04-21 02:12:00,64.0,-99.9,-100.00,SSW,203,0.0,-999.0,-999,-99.99,,,0.00,,2013-04-21 08:12:00,
2013-04-21 02:22:00,64.0,-99.9,-100.00,SSW,203,0.0,-999.0,-999,-99.99,,,0.00,,2013-04-21 08:22:00,
2013-04-21 02:32:00,62.0,-99.9,-100.00,SSW,203,0.0,-999.0,-999,-99.99,,,0.00,,2013-04-21 08:32:00,
2013-04-21 02:42:00,62.0,-99.9,-100.00,SSW,203,0.0,-999.0,-999,-99.99,,,0.00,,2013-04-21 08:42:00,
2013-04-21 02:52:00,60.0,-99.9,-100.00,SSW,203,0.0,-999.0,-999,-99.99,,,0.00,,2013-04-21 08:52:00,
2013-04-21 03:02:00,59.0,-99.9,-100.00,SSW,203,0.0,-999.0,-999,-99.99,,,0.00,,2013-04-21 09:02:00,
2013-04-21 03:12:00,59.0,-99.9,-100.00,SSW,203,0.0,-999.0,-999,-99.99,,,0.00,,2013-04-21 09:12:00,
2013-04-21 03:22:00,59.0,-99.9,-100.00,SSW,203,0.0,-999.0,-999,-99.99,,,0.00,,2013-04-21 09:22:00,
2013-04-21 03:33:00,58.0,-99.9,-100.00,SSW,203,0.0,-999.0,-999,-99.99,,,0.00,,2013-04-21 09:33:00,
2013-04-21 03:43:00,58.0,-99.9,-100.00,SSW,203,0.0,-999.0,-999,-99.99,,,0.00,,2013-04-21 09:43:00,
2013-04-21 03:53:00,58.0,-99.9,-100.00,SSW,203,0.0,-999.0,-999,-99.99,,,0.00,,2013-04-21 09:53:00,
2013-04-21 04:03:00,58.0,-99.9,-100.00,SSW,203,0.0,-999.0,-999,-99.99,,,0.00,,2013-04-21 10:03:00,
2013-04-21 04:12:00,59.0,-99.9,-100.00,SSW,203,0.0,-999.0,-999,-99.99,,,0.00,,2013-04-21 10:12:00,
2013-04-21 04:22:00,59.0,-99.9,-100.00,SSW,203,0.0,-999.0,-999,-99.99,,,0.00,,2013-04-21 10:22:00,
2013-04-21 04:33:00,61.0,-99.9,-100.00,SSW,203,0.0,-999.0,-999,-99.99,,,0.00,,2013-04-21 10:33:00,
2013-04-21 04:42:00,61.0,-99.9,-100.00,SSW,203,0.0,-999.0,-999,-99.99,,,0.00,,2013-04-21 10:42:00,
2013-04-21 04:52:00,61.0,-99.9,-100.00,SSW,203,0.0,-999.0,-999,-99.99,,,0.00,,2013-04-21 10:52:00,
2013-04-21 05:03:00,61.0,-99.9,-100.00,SSW,203,0.0,-999.0,-999,-99.99,,,0.00,,2013-04-21 11:03:00,
2013-04-21 05:12:00,61.0,-99.9,-100.00,SSW,203,0.0,-999.0,-999,-99.99,,,0.00,,2013-04-21 11:12:00,
2013-04-21 05:22:00,61.0,-99.9,-100.00,SSW,203,0.0,-999.0,-999,-99.99,,,0.00,,2013-04-21 11:22:00,
2013-04-21 05:34:00,60.0,-99.9,-100.00,SSW,203,0.0,-999.0,-999,-99.99,,,0.00,,2013-04-21 11:34:00,
2013-04-21 05:42:00,61.0,-99.9,-100.00,SSW,203,0.0,-999.0,-999,-99.99,,,0.00,,2013-04-21 11:42:00,
2013-04-21 05:52:00,61.0,-99.9,-100.00,SSW,203,0.0,-999.0,-999,-99.99,,,0.00,,2013-04-21 11:52:00,
2013-04-21 06:03:00,59.0,-99.9,-100.00,SSW,203,0.0,-999.0,-999,-99.99,,,0.00,,2013-04-21 12:03:00,
2013-04-21 06:12:00,55.0,-99.9,-100.00,SSW,203,0.0,-999.0,-999,-99.99,,,0.00,,2013-04-21 12:12:00,
2013-04-21 06:22:00,55.0,-99.9,-100.00,SSW,203,0.0,-999.0,-999,-99.99,,,0.00,,2013-04-21 12:22:00,
2013-04-21 06:32:00,53.0,-99.9,-100.00,SSW,203,0.0,-999.0,-999,-99.99,,,0.00,,2013-04-21 12:32:00,
2013-04-21 06:42:00,53.0,-99.9,-100.00,SSW,203,0.0,-999.0,-999,-99.99,,,0.00,,2013-04-21 12:42:00,
2013-04-21 06:52:00,53.0,-99.9,-100.00,SSW,203,0.0,-999.0,-999,-99.99,,,0.00,,2013-04-21 12:52:00,
2013-04-21 07:02:00,53.0,-99.9,-100.00,SSW,203,0.0,-999.0,-999,-99.99,,,0.00,,2013-04-21 13:02:00,
2013-04-21 07:12:00,54.0,-99.9,-100.00,SSW,203,0.0,-999.0,-999,-99.99,,,0.00,,2013-04-21 13:12:00,
2013-04-21 07:22:00,54.0,-99.9,-100.00,SSW,203,0.0,-999.0,-999,-99.99,,,0.00,,2013-04-21 13:22:00,
2013-04-21 07:32:00,56.0,-99.9,-100.00,SSW,203,0.0,-999.0,-999,-99.99,,,0.00,,2013-04-21 13:32:00,
2013-04-21 07:42:00,56.0,-99.9,-100.00,SSW,203,0.0,-999.0,-999,-99.99,,,0.00,,2013-04-21 13:42:00,
2013-04-21 07:52:00,57.0,-99.9,-100.00,SSW,203,0.0,-999.0,-999,-99.99,,,0.00,,2013-04-21 13:52:00,
2013-04-21 08:02:00,58.0,-99.9,-100.00,SSW,203,0.0,-999.0,-999,-99.99,,,0.00,,2013-04-21 14:02:00,
2013-04-21 08:12:00,59.0,-99.9,-100.00,SSW,203,0.0,-999.0,-999,-99.99,,,0.00,,2013-04-21 14:12:00,
2013-04-21 08:22:00,59.0,-99.9,-100.00,SSW,203,0.0,-999.0,-999,-99.99,,,0.00,,2013-04-21 14:22:00,
2013-04-21 08:32:00,60.0,-99.9,-100.00,SSW,203,0.0,-999.0,-999,-99.99,,,0.00,,2013-04-21 14:32:00,
2013-04-21 08:42:00,60.0,-99.9,-100.00,SSW,203,0.0,-999.0,-999,-99.99,,,0.00,,2013-04-21 14:42:00,
2013-04-21 08:52:00,61.0,-99.9,-100.00,SSW,203,0.0,-999.0,-999,-99.99,,,0.00,,2013-04-21 14:52:00,
2013-04-21 09:02:00,63.0,-99.9,-100.00,SSW,203,0.0,-999.0,-999,-99.99,,,0.00,,2013-04-21 15:02:00,
2013-04-21 09:12:00,63.0,-99.9,-100.00,SSW,203,0.0,-999.0,-999,-99.99,,,0.00,,2013-04-21 15:12:00,
2013-04-21 09:22:00,65.0,-99.9,-100.00,SSW,203,0.0,-999.0,-999,-99.99,,,0.00,,2013-04-21 15:22:00,
2013-04-21 09:33:00,67.0,-99.9,-100.00,SSW,203,0.0,-999.0,-999,-99.99,,,0.00,,2013-04-21 15:33:00,
2013-04-21 09:43:00,67.0,-99.9,-100.00,SSW,203,0.0,-999.0,-999,-99.99,,,0.00,,2013-04-21 15:43:00,
2013-04-21 09:53:00,68.0,-99.9,-100.00,SSW,203,0.0,-999.0,-999,-99.99,,,0.00,,2013-04-21 15:53:00,
2013-04-21 10:03:00,68.0,-99.9,-100.00,SSW,203,0.0,-999.0,-999,-99.99,,,0.00,,2013-04-21 16:03:00,
2013-04-21 10:13:00,70.0,-99.9,-100.00,SSW,203,0.0,-999.0,-999,-99.99,,,0.00,,2013-04-21 16:13:00,
2013-04-21 10:23:00,70.0,-99.9,-100.00,SSW,203,0.0,-999.0,-999,-99.99,,,0.00,,2013-04-21 16:23:00,
2013-04-21 10:33:00,71.0,-99.9,-100.00,SSW,203,0.0,-999.0,-999,-99.99,,,0.00,,2013-04-21 16:33:00,
2013-04-21 10:42:00,71.0,-99.9,-100.00,SSW,203,0.0,-999.0,-999,-99.99,,,0.00,,2013-04-21 16:42:00,
2013-04-21 10:53:00,72.0,-99.9,-100.00,SSW,203,0.0,-999.0,-999,-99.99,,,0.00,,2013-04-21 16:53:00,
2013-04-21 11:02:00,73.0,-99.9,-100.00,SSW,203,0.0,-999.0,-999,-99.99,,,0.00,,2013-04-21 17:02:00,
2013-04-21 11:12:00,74.0,-99.9,-100.00,SSW,203,0.0,-999.0,-999,-99.99,,,0.00,,2013-04-21 17:12:00,
2013-04-21 11:23:00,74.0,-99.9,-100.00,SSW,203,0.0,-999.0,-999,-99.99,,,0.00,,2013-04-21 17:23:00,
2013-04-21 11:32:00,77.0,-99.9,-100.00,SSW,203,0.0,-999.0,-999,-99.99,,,0.00,,2013-04-21 17:32:00,
2013-04-21 11:42:00,77.0,-99.9,-100.00,SSW,203,0.0,-999.0,-999,-99.99,,,0.00,,2013-04-21 17:42:00,
2013-04-21 11:53:00,79.0,-99.9,-100.00,ESE,113,0.0,-999.0,-999,-99.99,,,0.00,,2013-04-21 17:53:00,
2013-04-21 12:02:00,79.0,-99.9,-100.00,ESE,113,0.0,-999.0,-999,-99.99,,,0.00,,2013-04-21 18:02:00,
2013-04-21 12:11:00,79.0,-99.9,-100.00,ESE,113,0.0,-999.0,-999,-99.99,,,0.00,,2013-04-21 18:11:00,
2013-04-21 12:22:00,79.0,-99.9,-100.00,ESE,113,0.0,-999.0,-999,-99.99,,,0.00,,2013-04-21 18:22:00,
2013-04-21 12:33:00,79.0,-99.9,-100.00,ESE,113,0.0,-999.0,-999,-99.99,,,0.00,,2013-04-21 18:33:00,
2013-04-21 12:42:00,79.0,-99.9,-100.00,ESE,113,0.0,-999.0,-999,-99.99,,,0.00,,2013-04-21 18:42:00,
2013-04-21 12:52:00,82.0,-99.9,-100.00,ESE,113,0.0,-999.0,-999,-99.99,,,0.00,,2013-04-21 18:52:00,
2013-04-21 13:02:00,83.0,-99.9,-100.00,SSE,158,7.0,-999.0,-999,-99.99,,,0.00,,2013-04-21 19:02:00,
2013-04-21 13:12:00,83.0,-99.9,-100.00,SSE,158,7.0,-999.0,-999,-99.99,,,0.00,,2013-04-21 19:12:00,
2013-04-21 13:22:00,83.0,-99.9,-100.00,South,180,3.0,-999.0,-999,-99.99,,,0.00,,2013-04-21 19:22:00,
2013-04-21 13:32:00,84.0,-99.9,-100.00,SSE,158,6.0,-999.0,-999,-99.99,,,0.00,,2013-04-21 19:32:00,
2013-04-21 13:43:00,84.0,-99.9,-100.00,SSE,158,6.0,-999.0,-999,-99.99,,,0.00,,2013-04-21 19:43:00,
2013-04-21 13:52:00,84.0,-99.9,-100.00,SSW,203,6.0,-999.0,-999,-99.99,,,0.00,,2013-04-21 19:52:00,
2013-04-21 14:02:00,83.0,-99.9,-100.00,SSE,158,0.0,-999.0,-999,-99.99,,,0.00,,2013-04-21 20:02:00,
2013-04-21 14:12:00,86.0,-99.9,-100.00,SSW,203,4.0,-999.0,-999,-99.99,,,0.00,,2013-04-21 20:12:00,
2013-04-21 14:22:00,86.0,-99.9,-100.00,SSW,203,4.0,-999.0,-999,-99.99,,,0.00,,2013-04-21 20:22:00,
2013-04-21 14:32:00,85.0,-99.9,-100.00,SE,135,11.0,-999.0,-999,-99.99,,,0.00,,2013-04-21 20:32:00,
2013-04-21 14:42:00,85.0,-99.9,-100.00,SE,135,11.0,-999.0,-999,-99.99,,,0.00,,2013-04-21 20:42:00,
2013-04-21 14:52:00,86.0,-99.9,-100.00,SSE,158,0.0,-999.0,-999,-99.99,,,0.00,,2013-04-21 20:52:00,
2013-04-21 15:02:00,87.0,-99.9,-100.00,SSE,158,5.0,-999.0,-999,-99.99,,,0.00,,2013-04-21 21:02:00,
2013-04-21 15:12:00,88.0,-99.9,-100.00,SSE,158,5.0,-999.0,-999,-99.99,,,0.00,,2013-04-21 21:12:00,
2013-04-21 15:22:00,88.0,-99.9,-100.00,SSE,158,5.0,-999.0,-999,-99.99,,,0.00,,2013-04-21 21:22:00,
2013-04-21 15:33:00,85.0,-99.9,-100.00,SSW,203,0.0,-999.0,-999,-99.99,,,0.00,,2013-04-21 21:33:00,
2013-04-21 15:43:00,85.0,-99.9,-100.00,SSW,203,0.0,-999.0,-999,-99.99,,,0.00,,2013-04-21 21:43:00,
2013-04-21 15:53:00,87.0,-99.9,-100.00,South,180,0.0,-999.0,-999,-99.99,,,0.00,,2013-04-21 21:53:00,
2013-04-21 16:03:00,89.0,-99.9,-100.00,SE,135,0.0,-999.0,-999,-99.99,,,0.00,,2013-04-21 22:03:00,
2013-04-21 16:12:00,89.0,-99.9,-100.00,SSE,158,5.0,-999.0,-999,-99.99,,,0.00,,2013-04-21 22:12:00,
2013-04-21 16:22:00,89.0,-99.9,-100.00,SSE,158,5.0,-999.0,-999,-99.99,,,0.00,,2013-04-21 22:22:00,
2013-04-21 16:33:00,88.0,-99.9,-100.00,SSE,158,3.0,-999.0,-999,-99.99,,,0.00,,2013-04-21 22:33:00,
2013-04-21 16:43:00,88.0,-99.9,-100.00,SSE,158,3.0,-999.0,-999,-99.99,,,0.00,,2013-04-21 22:43:00,
2013-04-21 16:53:00,87.0,-99.9,-100.00,SW,225,0.0,-999.0,-999,-99.99,,,0.00,,2013-04-21 22:53:00,
2013-04-21 17:02:00,87.0,-99.9,-100.00,SSW,203,7.0,-999.0,-999,-99.99,,,0.00,,2013-04-21 23:02:00,
2013-04-21 17:12:00,87.0,-99.9,-100.00,SSW,203,7.0,-999.0,-999,-99.99,,,0.00,,2013-04-21 23:12:00,
2013-04-21 17:23:00,86.0,-99.9,-100.00,SSW,203,0.0,-999.0,-999,-99.99,,,0.00,,2013-04-21 23:23:00,
2013-04-21 17:32:00,86.0,-99.9,-100.00,SSE,158,0.0,-999.0,-999,-99.99,,,0.00,,2013-04-21 23:32:00,
2013-04-21 17:43:00,86.0,-99.9,-100.00,SSE,158,0.0,-999.0,-999,-99.99,,,0.00,,2013-04-21 23:43:00,
2013-04-21 17:52:00,85.0,-99.9,-100.00,SSE,158,0.0,-999.0,-999,-99.99,,,0.00,,2013-04-21 23:52:00,
2013-04-21 18:02:00,85.0,-99.9,-100.00,WSW,248,0.0,-999.0,-999,-99.99,,,0.00,,2013-04-22 00:02:00,
2013-04-21 18:12:00,85.0,-99.9,-100.00,WSW,248,0.0,-999.0,-999,-99.99,,,0.00,,2013-04-22 00:12:00,
2013-04-21 18:22:00,84.0,-99.9,-100.00,SSW,203,0.0,-999.0,-999,-99.99,,,0.00,,2013-04-22 00:22:00,
2013-04-21 18:32:00,84.0,-99.9,-100.00,SE,135,0.0,-999.0,-999,-99.99,,,0.00,,2013-04-22 00:32:00,
2013-04-21 18:42:00,84.0,-99.9,-100.00,SE,135,0.0,-999.0,-999,-99.99,,,0.00,,2013-04-22 00:42:00,
2013-04-21 18:52:00,83.0,-99.9,-100.00,SSE,158,0.0,-999.0,-999,-99.99,,,0.00,,2013-04-22 00:52:00,
2013-04-21 19:02:00,83.0,-99.9,-100.00,SSE,158,0.0,-999.0,-999,-99.99,,,0.00,,2013-04-22 01:02:00,
2013-04-21 19:12:00,83.0,-99.9,-100.00,SSE,158,0.0,-999.0,-999,-99.99,,,0.00,,2013-04-22 01:12:00,
2013-04-21 19:22:00,81.0,-99.9,-100.00,SSE,158,0.0,-999.0,-999,-99.99,,,0.00,,2013-04-22 01:22:00,
2013-04-21 19:32:00,80.0,-99.9,-100.00,SSE,158,4.0,-999.0,-999,-99.99,,,0.00,,2013-04-22 01:32:00,
2013-04-21 19:42:00,80.0,-99.9,-100.00,SSE,158,4.0,-999.0,-999,-99.99,,,0.00,,2013-04-22 01:42:00,
2013-04-21 19:52:00,78.0,-99.9,-100.00,SSE,158,0.0,-999.0,-999,-99.99,,,0.00,,2013-04-22 01:52:00,
2013-04-21 20:02:00,78.0,-99.9,-100.00,SSE,158,0.0,-999.0,-999,-99.99,,,0.00,,2013-04-22 02:02:00,
2013-04-21 20:12:00,78.0,-99.9,-100.00,SSE,158,0.0,-999.0,-999,-99.99,,,0.00,,2013-04-22 02:12:00,
2013-04-21 20:22:00,78.0,-99.9,-100.00,SSE,158,0.0,-999.0,-999,-99.99,,,0.00,,2013-04-22 02:22:00,
2013-04-21 20:32:00,77.0,-99.9,-100.00,SSE,158,0.0,-999.0,-999,-99.99,,,0.00,,2013-04-22 02:32:00,
2013-04-21 20:42:00,77.0,-99.9,-100.00,SSE,158,0.0,-999.0,-999,-99.99,,,0.00,,2013-04-22 02:42:00,
2013-04-21 20:52:00,76.0,-99.9,-100.00,SSE,158,0.0,-999.0,-999,-99.99,,,0.00,,2013-04-22 02:52:00,
2013-04-21 21:02:00,78.0,-99.9,-100.00,SSE,158,0.0,-999.0,-999,-99.99,,,0.00,,2013-04-22 03:02:00,
2013-04-21 21:11:00,78.0,-99.9,-100.00,SSE,158,0.0,-999.0,-999,-99.99,,,0.00,,2013-04-22 03:11:00,
2013-04-21 21:22:00,77.0,-99.9,-100.00,SSE,158,0.0,-999.0,-999,-99.99,,,0.00,,2013-04-22 03:22:00,
2013-04-21 21:33:00,76.0,-99.9,-100.00,SSE,158,0.0,-999.0,-999,-99.99,,,0.00,,2013-04-22 03:33:00,
2013-04-21 21:43:00,76.0,-99.9,-100.00,SSE,158,0.0,-999.0,-999,-99.99,,,0.00,,2013-04-22 03:43:00,
2013-04-21 21:53:00,76.0,-99.9,-100.00,SSE,158,0.0,-999.0,-999,-99.99,,,0.00,,2013-04-22 03:53:00,
2013-04-21 22:03:00,74.0,-99.9,-100.00,SSE,158,0.0,-999.0,-999,-99.99,,,0.00,,2013-04-22 04:03:00,
2013-04-21 22:13:00,74.0,-99.9,-100.00,SSE,158,0.0,-999.0,-999,-99.99,,,0.00,,2013-04-22 04:13:00,
2013-04-21 22:23:00,76.0,-99.9,-100.00,SSE,158,0.0,-999.0,-999,-99.99,,,0.00,,2013-04-22 04:23:00,
2013-04-21 22:33:00,72.0,-99.9,-100.00,SSE,158,0.0,-999.0,-999,-99.99,,,0.00,,2013-04-22 04:33:00,
2013-04-21 22:43:00,72.0,-99.9,-100.00,SSE,158,0.0,-999.0,-999,-99.99,,,0.00,,2013-04-22 04:43:00,
2013-04-21 22:53:00,72.0,-99.9,-100.00,SSE,158,0.0,-999.0,-999,-99.99,,,0.00,,2013-04-22 04:53:00,
2013-04-21 23:03:00,75.0,-99.9,-100.00,SSE,158,0.0,-999.0,-999,-99.99,,,0.00,,2013-04-22 05:03:00,
2013-04-21 23:12:00,75.0,-99.9,-100.00,SSE,158,0.0,-999.0,-999,-99.99,,,0.00,,2013-04-22 05:12:00,
2013-04-21 23:23:00,75.0,-99.9,-100.00,SSE,158,0.0,-999.0,-999,-99.99,,,0.00,,2013-04-22 05:23:00,
2013-04-21 23:33:00,75.0,-99.9,-100.00,SSE,158,0.0,-999.0,-999,-99.99,,,0.00,,2013-04-22 05:33:00,
2013-04-21 23:42:00,75.0,-99.9,-100.00,SSE,158,0.0,-999.0,-999,-99.99,,,0.00,,2013-04-22 05:42:00,
2013-04-21 23:52:00,72.0,-99.9,-100.00,SSE,158,0.0,-999.0,-999,-99.99,,,0.00,,2013-04-22 05:52:00,